#timestamp,LO_Frequency,Hit,StdDev 
1458666015.3,286046994.0,P
1458666035.1,286046995.8,N
1458666036.0,286046995.8,P
1458666055.8,286046993.7,Y
1458666075.7,286046997.1,P
1458666095.5,286046997.3,P
1458666115.3,286046996.6,P
1458666135.2,286046998.8,N
1458666155.9,286046998.6,N
1458666175.7,286046999.5,N
1458666195.6,286046995.1,Y
1458666215.4,286046996.7,P
1458666235.2,286046998.6,P
1458666255.1,286046998.2,N
1458666256.0,286046998.2,N
1458666275.8,286047002.3,Y
1458666295.6,286047001.4,P
1458666315.5,286047001.5,N
1458666335.3,286047002.0,N
1458666355.1,286047004.0,N
1458666375.9,286047003.4,N
1458666395.7,286047004.5,N
1458666415.5,286047009.1,Y
1458666435.4,286047002.9,P
1458666455.2,286047003.4,P
1458666475.0,286047007.4,P
1458666475.9,286047007.4,Y
1458666495.8,286046999.7,P
1458666515.6,286047002.1,N
1458666535.4,286047000.6,N
1458666555.3,286047001.7,N
1458666575.1,286047002.1,N
1458666576.0,286047002.1,N
1458666595.8,286047000.1,N
1458666615.7,286047000.0,N
1458666635.5,286047000.5,N
1458666655.3,286047000.9,N
1458666675.2,286047004.1,Y
1458666695.9,286047002.4,P
1458666715.7,286046998.7,N
1458666735.6,286047000.2,N
1458666755.4,286047001.4,N
1458666775.2,286047003.7,N
1458666795.0,286047001.3,N
1458666795.9,286047001.3,N
1458666815.8,286047005.2,Y
1458666835.6,286047002.1,P
1458666855.4,286047003.9,P
1458666875.3,286047003.5,P
1458666895.1,286047001.5,N
1458666915.8,286047003.3,Y
1458666935.7,286047004.1,P
1458666955.5,286047004.8,P
1458666975.3,286047003.6,P
1458666995.2,286047003.4,Y
1458667015.0,286047004.3,P
1458667015.9,286047004.3,P
1458667035.7,286047002.4,P
1458667055.6,286047002.6,Y
1458667075.4,286046994.2,P
1458667095.2,286046995.9,N
1458667115.1,286046997.0,N
1458667116.0,286046997.0,N
1458667135.8,286046996.6,N
1458667155.6,286046996.9,N
1458667175.5,286046995.3,N
1458667195.3,286046998.9,N
1458667215.1,286046997.6,N
1458667235.9,286046997.2,N
1458667255.7,286046993.6,N
1458667275.5,286046992.8,N
1458667295.4,286046993.9,N
1458667315.2,286046991.8,Y
1458667335.0,286047000.8,P
1458667335.9,286047000.8,N
1458667355.8,286047001.1,N
1458667375.6,286047003.9,N
1458667395.4,286047002.1,N
1458667415.3,286047002.9,N
1458667435.1,286047002.3,N
1458667436.0,286047002.3,N
1458667455.8,286047002.1,N
1458667475.7,286047002.6,N
1458667495.5,286047001.3,N
1458667515.3,286047005.7,Y
1458667535.2,286047003.4,P
1458667555.9,286047002.1,N
1458667575.7,286047002.9,P
1458667595.5,286047001.5,N
1458667615.4,286046999.5,N
1458667635.2,286046995.0,Y
1458667655.0,286046993.3,P
1458667656.0,286046993.3,N
1458667675.8,286046994.9,N
1458667695.6,286046999.2,N
1458667715.4,286046999.0,N
1458667735.3,286046998.8,N
1458667755.1,286046998.7,N
1458667775.8,286046997.1,N
1458667795.7,286046996.6,N
1458667815.5,286046998.3,N
1458667835.3,286047001.0,N
1458667855.2,286046997.0,N
1458667875.9,286046996.6,N
1458667895.7,286046995.6,N
1458667915.6,286046995.0,N
1458667935.4,286046994.6,N
1458667955.2,286046990.5,Y
1458667975.1,286046993.2,P
1458667976.0,286046993.2,P
1458667995.8,286046994.5,P
1458668015.6,286046993.5,Y
1458668035.5,286046999.2,P
1458668055.3,286047000.9,N
1458668075.1,286046999.7,N
1458668095.9,286047003.9,N
1458668115.7,286046996.7,N
1458668135.5,286046997.2,N
1458668155.4,286046997.3,N
1458668175.2,286046995.0,N
1458668195.0,286046994.9,N
1458668195.9,286046994.9,N
1458668215.8,286046995.2,N
1458668235.6,286046994.2,N
1458668255.4,286046997.4,N
1458668275.3,286046991.7,Y
1458668295.1,286046994.3,P
1458668296.0,286046994.3,P
1458668315.8,286046993.9,P
1458668335.7,286046994.2,Y
1458668355.5,286046996.7,P
1458668375.3,286046996.9,P
1458668395.1,286046997.3,P
1458668415.9,286046995.6,Y
1458668435.7,286047002.8,P
1458668455.6,286047000.9,N
1458668475.4,286047002.8,N
1458668495.2,286047000.0,N
1458668515.0,286047004.1,N
1458668515.9,286047004.1,N
1458668535.8,286047004.0,N
1458668555.6,286047003.0,N
1458668575.4,286047005.6,N
1458668595.3,286047001.4,N
1458668615.1,286047001.8,N
1458668635.8,286047003.0,N
1458668655.7,286047002.0,N
1458668675.5,286047005.5,N
1458668695.3,286047003.7,N
1458668715.2,286047003.4,N
1458668735.9,286047001.3,N
1458668755.7,286047000.3,N
1458668775.6,286046998.9,N
1458668795.4,286046998.5,N
1458668815.2,286046999.6,N
1458668835.0,286046998.3,N
1458668835.9,286046998.3,N
1458668855.8,286047001.0,N
1458668875.6,286046994.9,N
1458668895.4,286046994.9,N
1458668915.3,286046997.8,N
1458668935.1,286046997.4,N
1458668955.8,286046998.5,N
1458668975.7,286046997.1,N
1458668995.5,286046997.7,N
1458669015.3,286047000.5,N
1458669035.2,286047000.7,N
1458669055.9,286047002.2,N
1458669075.7,286047003.5,N
1458669095.6,286046998.6,N
1458669115.4,286046997.9,N
1458669135.2,286046999.3,N
1458669155.0,286046998.1,N
1458669156.0,286046998.1,N
1458669175.8,286047000.8,N
1458669195.6,286046999.1,N
1458669215.4,286047001.0,N
1458669235.3,286047000.6,N
1458669255.1,286047000.8,N
1458669275.8,286046996.6,N
1458669295.7,286046999.5,N
1458669315.5,286046994.1,Y
1458669335.3,286046996.3,P
1458669355.2,286046993.3,P
1458669375.0,286046993.4,N
1458669375.9,286046993.4,N
1458669395.7,286046995.3,N
1458669415.6,286046993.3,Y
1458669435.4,286047002.7,P
1458669455.2,286046998.9,N
1458669475.1,286047002.4,N
1458669476.0,286047002.4,N
1458669495.8,286047003.4,N
1458669515.6,286047008.5,N
1458669535.5,286047006.3,N
1458669555.3,286047007.8,N
1458669575.1,286047011.0,N
1458669595.9,286047014.0,Y
